When you browse on this site, cookies collect data to enhance your experience and personalize the content and advertising you see.
Visit our Privacy Policy to learn more. By continuing to use the site, you agree to this use of cookies and data.
  • en Belgique
  • Liste des pays
  • À 7 jours
  • Température de l'eau
  • Carte satellitaire
  • Carte météo
  • Widgets météo
  • user-avatar
    Se connecter

    Météo par heure à Zaharovka

    Ce jour, 22 Mars, Vendredi

    Heure Température Précipitation Vent Pression Humidité
    00:00 -4°C° 0 mm 3 m/s 745 mmHg 94%
    01:00 -2°C° 0 mm 3 m/s 744 mmHg 94%
    02:00 -3°C° 0 mm 4 m/s 743 mmHg 94%
    03:00 -2°C° 0.3 mm 4 m/s 742 mmHg 94%
    04:00 -2°C° 0.3 mm 4 m/s 741 mmHg 94%
    05:00 -2°C° 0.3 mm 5 m/s 740 mmHg 94%
    06:00 -1°C° 1.1 mm 4 m/s 739 mmHg 95%
    07:00 -1°C° 1.1 mm 4 m/s 738 mmHg 95%
    08:00 -1°C° 1.1 mm 4 m/s 738 mmHg 95%
    09:00 -1°C° 0.8 mm 5 m/s 738 mmHg 92%
    10:00 -2°C° 0.8 mm 6 m/s 738 mmHg 89%
    11:00 -2°C° 0.8 mm 8 m/s 738 mmHg 87%
    12:00 -2°C° 0.1 mm 7 m/s 739 mmHg 85%
    13:00 -2°C° 0.1 mm 7 m/s 740 mmHg 83%
    14:00 -3°C° 0.1 mm 7 m/s 740 mmHg 81%
    15:00 -3°C° 0 mm 7 m/s 741 mmHg 82%
    16:00 -3°C° 0 mm 6 m/s 741 mmHg 82%
    17:00 -3°C° 0 mm 6 m/s 742 mmHg 82%
    18:00 -2°C° 0 mm 5 m/s 742 mmHg 84%
    19:00 -2°C° 0 mm 5 m/s 743 mmHg 86%
    20:00 -2°C° 0 mm 5 m/s 744 mmHg 87%
    21:00 -2°C° 0 mm 5 m/s 744 mmHg 88%
    22:00 -2°C° 0 mm 5 m/s 745 mmHg 89%
    23:00 -2°C° 0 mm 5 m/s 746 mmHg 90%

    Demain, 23 Mars, Samedi

    Heure Température Précipitation Vent Pression Humidité
    00:00 -2°C° 0 mm 5 m/s 747 mmHg 90%
    01:00 -2°C° 0 mm 4 m/s 748 mmHg 91%
    02:00 -2°C° 0 mm 4 m/s 749 mmHg 92%
    03:00 -2°C° 0 mm 3 m/s 749 mmHg 93%
    04:00 -2°C° 0 mm 3 m/s 750 mmHg 95%
    05:00 -3°C° 0 mm 2 m/s 751 mmHg 96%
    06:00 -2°C° 0 mm 2 m/s 751 mmHg 96%
    07:00 -2°C° 0 mm 2 m/s 752 mmHg 97%
    08:00 -1°C° 0 mm 2 m/s 752 mmHg 98%
    09:00 +1°C° 0 mm 1 m/s 752 mmHg 98%
    10:00 +1°C° 0 mm 1 m/s 752 mmHg 98%
    11:00 +2°C° 0 mm 1 m/s 752 mmHg 98%
    12:00 +2°C° 0 mm 1 m/s 752 mmHg 97%
    13:00 +2°C° 0 mm 1 m/s 752 mmHg 97%
    14:00 +2°C° 0 mm 1 m/s 751 mmHg 96%
    15:00 +1°C° 0 mm 2 m/s 751 mmHg 95%
    16:00 +1°C° 0 mm 2 m/s 750 mmHg 94%
    17:00 +1°C° 0 mm 2 m/s 750 mmHg 93%
    18:00 0°C° 0 mm 3 m/s 749 mmHg 92%
    19:00 -1°C° 0 mm 4 m/s 749 mmHg 90%
    20:00 -1°C° 0 mm 4 m/s 749 mmHg 89%
    21:00 -2°C° 0 mm 4 m/s 748 mmHg 89%
    22:00 -2°C° 0 mm 5 m/s 747 mmHg 88%
    23:00 -2°C° 0 mm 5 m/s 746 mmHg 87%

    Après-demain, 24 Mars, Dimanche

    Heure Température Précipitation Vent Pression Humidité
    00:00 -2°C° 0 mm 5 m/s 746 mmHg 88%
    01:00 -2°C° 0 mm 5 m/s 745 mmHg 88%
    02:00 -2°C° 0 mm 5 m/s 744 mmHg 88%
    03:00 -2°C° 0.6 mm 5 m/s 743 mmHg 89%
    04:00 -2°C° 0.6 mm 5 m/s 743 mmHg 91%
    05:00 -2°C° 0.6 mm 5 m/s 742 mmHg 93%
    06:00 -1°C° 0.1 mm 4 m/s 742 mmHg 94%
    07:00 -1°C° 0.1 mm 4 m/s 741 mmHg 95%
    08:00 -1°C° 0.1 mm 4 m/s 741 mmHg 96%
    09:00 0°C° 0 mm 3 m/s 741 mmHg 96%
    10:00 +1°C° 0 mm 3 m/s 741 mmHg 95%
    11:00 +1°C° 0 mm 3 m/s 740 mmHg 94%
    12:00 +1°C° 0.3 mm 3 m/s 740 mmHg 92%
    13:00 +1°C° 0.3 mm 3 m/s 740 mmHg 89%
    14:00 0°C° 0.3 mm 4 m/s 740 mmHg 86%
    15:00 +1°C° 0.2 mm 3 m/s 740 mmHg 85%
    16:00 0°C° 0.2 mm 3 m/s 740 mmHg 84%
    17:00 0°C° 0.2 mm 3 m/s 740 mmHg 83%
    18:00 -1°C° 0 mm 3 m/s 740 mmHg 84%
    19:00 -2°C° 0 mm 3 m/s 740 mmHg 86%
    20:00 -4°C° 0 mm 3 m/s 741 mmHg 87%
    21:00 -4°C° 0 mm 3 m/s 741 mmHg 88%
    22:00 -4°C° 0 mm 3 m/s 740 mmHg 89%
    23:00 -5°C° 0 mm 3 m/s 740 mmHg 89%

    25 Mars, Lundi

    Heure Température Précipitation Vent Pression Humidité
    00:00 -5°C° 0 mm 3 m/s 740 mmHg 90%
    01:00 -5°C° 0 mm 3 m/s 740 mmHg 90%
    02:00 -6°C° 0 mm 3 m/s 740 mmHg 90%
    03:00 -6°C° 0 mm 3 m/s 740 mmHg 91%
    04:00 -6°C° 0 mm 3 m/s 740 mmHg 92%
    05:00 -6°C° 0 mm 3 m/s 740 mmHg 92%
    06:00 -5°C° 0 mm 4 m/s 740 mmHg 89%
    07:00 -4°C° 0 mm 4 m/s 741 mmHg 86%
    08:00 -3°C° 0 mm 4 m/s 741 mmHg 83%
    09:00 -4°C° 0 mm 5 m/s 741 mmHg 82%
    10:00 -2°C° 0 mm 5 m/s 741 mmHg 81%
    11:00 -2°C° 0 mm 5 m/s 741 mmHg 79%
    12:00 -2°C° 0 mm 4 m/s 741 mmHg 79%
    13:00 -2°C° 0 mm 4 m/s 742 mmHg 79%
    14:00 -1°C° 0 mm 3 m/s 742 mmHg 79%
    15:00 -1°C° 0 mm 3 m/s 741 mmHg 80%
    16:00 -1°C° 0 mm 2 m/s 741 mmHg 81%
    17:00 +1°C° 0 mm 1 m/s 741 mmHg 83%
    18:00 0°C° 0 mm 1 m/s 741 mmHg 85%
    19:00 0°C° 0 mm 1 m/s 741 mmHg 88%
    20:00 -1°C° 0 mm 1 m/s 741 mmHg 90%
    21:00 -1°C° 1 mm 1 m/s 741 mmHg 92%
    22:00 -3°C° 1 mm 2 m/s 741 mmHg 94%
    23:00 -3°C° 1 mm 2 m/s 741 mmHg 96%

    26 Mars, Mardi

    Heure Température Précipitation Vent Pression Humidité
    00:00 -3°C° 0.5 mm 2 m/s 741 mmHg 94%
    01:00 -4°C° 0.5 mm 2 m/s 741 mmHg 92%
    02:00 -4°C° 0.5 mm 2 m/s 741 mmHg 90%
    03:00 -6°C° 0 mm 3 m/s 742 mmHg 91%
    04:00 -7°C° 0 mm 3 m/s 742 mmHg 91%
    05:00 -7°C° 0 mm 3 m/s 742 mmHg 92%
    06:00 -7°C° 0 mm 3 m/s 743 mmHg 91%
    07:00 -7°C° 0 mm 3 m/s 743 mmHg 89%
    08:00 -6°C° 0 mm 3 m/s 744 mmHg 88%
    09:00 -6°C° 0 mm 3 m/s 744 mmHg 84%
    10:00 -5°C° 0 mm 3 m/s 744 mmHg 81%
    11:00 -4°C° 0 mm 3 m/s 744 mmHg 77%
    12:00 -4°C° 0 mm 3 m/s 744 mmHg 75%
    13:00 -2°C° 0 mm 3 m/s 744 mmHg 73%
    14:00 -2°C° 0 mm 3 m/s 744 mmHg 71%
    15:00 -2°C° 0 mm 3 m/s 743 mmHg 73%
    16:00 -3°C° 0 mm 2 m/s 743 mmHg 76%
    17:00 -3°C° 0 mm 2 m/s 742 mmHg 78%
    18:00 -3°C° 0 mm 2 m/s 742 mmHg 79%
    19:00 -4°C° 0 mm 3 m/s 741 mmHg 81%
    20:00 -5°C° 0 mm 3 m/s 741 mmHg 83%
    21:00 -4°C° 0.5 mm 3 m/s 740 mmHg 87%
    22:00 -4°C° 0.5 mm 3 m/s 739 mmHg 91%
    23:00 -4°C° 0.5 mm 4 m/s 739 mmHg 94%

    27 Mars, Mercredi

    Heure Température Précipitation Vent Pression Humidité
    00:00 -4°C° 0.5 mm 3 m/s 739 mmHg 94%
    01:00 -4°C° 0.5 mm 3 m/s 738 mmHg 94%
    02:00 -4°C° 0.5 mm 3 m/s 738 mmHg 94%
    03:00 -5°C° 0.2 mm 3 m/s 738 mmHg 93%
    04:00 -5°C° 0.2 mm 3 m/s 738 mmHg 93%
    05:00 -7°C° 0.2 mm 4 m/s 738 mmHg 92%
    06:00 -5°C° 0.3 mm 4 m/s 739 mmHg 92%
    07:00 -5°C° 0.3 mm 4 m/s 740 mmHg 92%
    08:00 -4°C° 0.3 mm 4 m/s 740 mmHg 92%
    09:00 -4°C° 0.1 mm 4 m/s 741 mmHg 89%
    10:00 -4°C° 0.1 mm 5 m/s 742 mmHg 87%
    11:00 -4°C° 0.1 mm 5 m/s 743 mmHg 85%
    12:00 -2°C° 0.1 mm 5 m/s 743 mmHg 84%
    13:00 -2°C° 0.1 mm 4 m/s 744 mmHg 83%
    14:00 -2°C° 0.1 mm 4 m/s 745 mmHg 82%
    15:00 -2°C° 0.1 mm 4 m/s 746 mmHg 83%
    16:00 -2°C° 0.1 mm 3 m/s 747 mmHg 83%
    17:00 -2°C° 0.1 mm 3 m/s 747 mmHg 84%
    18:00 -4°C° 0 mm 3 m/s 748 mmHg 85%
    19:00 -5°C° 0 mm 3 m/s 749 mmHg 87%
    20:00 -6°C° 0 mm 3 m/s 750 mmHg 88%
    21:00 -6°C° 0 mm 2 m/s 750 mmHg 88%
    22:00 -6°C° 0 mm 2 m/s 751 mmHg 88%
    23:00 -7°C° 0 mm 2 m/s 751 mmHg 88%
    Voir plus